Regional Weather Roundup
Issued by NWS

Home | Current Version | Previous Version | Text Only | Print | Product List | Glossary On
Versions: 1 2 3 4 5 6 7 8 9 10 11 12 13 14 15 16 17 18 19 20 21 22 23 24 25 26 27 28 29 30 31 32 33 34 35 36 37 38 39 40 41 42 43 44 45 46 47 48 49 50
000
ASUS44 KFWD 310410
RWRTX
NORTH TEXAS HOURLY WEATHER ROUNDUP
NATIONAL WEATHER SERVICE FORT WORTH TX
1100 PM CDT MON MAY 30 2016

NOTE: "FAIR" INDICATES FEW OR NO CLOUDS BELOW 12,000 FEET WITH NO
SIGNIFICANT WEATHER AND/OR OBSTRUCTIONS TO VISIBILITY.

TXZ118-119-310500-
DALLAS/FORT WORTH METROPLEX

CITY           SKY/WX    TMP DP  RH WIND       PRES   REMARKS
DFW AIRPORT    CLOUDY    75  65  70 SE5       29.91S
DALLAS LOVE    CLOUDY    79  65  62 SE5       29.91S
FTW MEACHAM    MOCLDY    78  65  63 E6        29.91S
DAL-EXECUTIVE  CLOUDY    74  65  73 E3        29.92R
FTW-ALLIANCE   MOCLDY    74  66  76 CALM      29.92R
FTW-NAS-JRB    MOCLDY    77  66  68 SE3       29.91S
FTW-SPINKS     MOCLDY    73  68  83 SE3       29.93S
ARLINGTON      CLOUDY    77  68  73 E3        29.92R
GRAND PRAIRIE  CLOUDY    76  65  69 CALM      29.92F
ADDISON        MOCLDY    77  67  70 SE3       29.94S
MESQUITE       CLOUDY    72  69  92 CALM      29.92S
LANCASTER      CLOUDY    73  68  84 CALM      29.92S
$$

TXZ091>094-102>105-117-120-121-131>134-310500-
NORTH CENTRAL TEXAS

CITY           SKY/WX    TMP DP  RH WIND       PRES   REMARKS
SHRMAN/DENISON CLEAR     68  60  75 SE3       29.94S
GAINESVILLE    CLOUDY    70  66  87 CALM      29.95S
BOWIE          CLOUDY    70  66  88 SE3       29.94R
BRIDGEPORT     CLOUDY    72  69  90 SE3       29.94R
DECATUR        CLOUDY    73  64  74 SE6       29.94R
DENTON         CLOUDY    73  67  81 CALM      29.92R
MCKINNEY       CLOUDY    71  69  93 NE3       29.93R
GREENVILLE     CLOUDY    72  68  88 CALM      29.93S
ROCKWALL       CLOUDY    74  66  75 CALM      29.92S
TERRELL        CLOUDY    73  68  84 CALM      29.92S
WAXAHACHIE     CLOUDY    74  68  81 CALM      29.93S
CLEBURNE       CLOUDY    75  72  88 CALM      29.93F
GRANBURY       CLOUDY    76  68  76 E6        29.92S
$$

TXZ083>090-098>101-113>116-127>130-139>142-154-155-310500-
WESTERN NORTH TEXAS

CITY           SKY/WX    TMP DP  RH WIND       PRES   REMARKS
WICHITA FALLS  CLEAR     72  67  84 S12       29.91R
WF-KICKAPOO    CLOUDY    75  67  76 SE9       29.92R
VERNON         CLOUDY    75  64  67 SE10      29.92R
ABILENE        CLOUDY    79  66  64 SW7       29.93R
GRAHAM         CLOUDY    74  68  80 SE5       29.91R
MINERAL WELLS  CLOUDY    73  68  84 SE7       29.91R
STEPHENVILLE   CLOUDY    74  66  77 SE5       29.96R
COMANCHE       CLOUDY    74  69  86 S6        29.93S
BROWNWOOD      CLOUDY    73  68  83 SE7       29.92F
COLEMAN        MOCLDY    74  68  81 SW5       29.95R
$$

TXZ143>147-156>162-174-175-310500-
CENTRAL TEXAS

CITY           SKY/WX    TMP DP  RH WIND       PRES   REMARKS
WACO           PTCLDY    76  66  71 S8        29.92R
WACO-TSTC      CLEAR     73  64  73 CALM      29.92
WACO-MCGREGOR  PTCLDY    73  68  84 SE8       29.93R
HILLSBORO      CLOUDY    73  67  81 E6        29.91F
CORSICANA      PTCLDY    77  69  76 CALM      29.93R
MEXIA          PTCLDY    74  69  85 S6        29.92S
HEARNE         PTCLDY    75  69  80 CALM      29.95R
CAMERON        CLOUDY    76  69  77 SE5       29.93R
TEMPLE         PTCLDY    75  68  78 SE8       29.94R
KILLEEN        NOT AVBL
KILLEEN-SKYLRK PTCLDY    76  68  76 SE10      29.94R
GATESVILLE     CLEAR     73  68  83 CALM      29.95R
HAMILTON       PTCLDY    73  67  80 SE7       29.95R
LAMPASAS       PTCLDY    75  70  84 CALM      29.94S
$$

TXZ095>097-106>112-122>126-135>138-148>153-164>167-310500-
EAST TEXAS

CITY           SKY/WX    TMP DP  RH WIND       PRES   REMARKS
PARIS          CLEAR     70  61  73 E6        29.94S
SULPHUR SPRNGS PTCLDY    73  71  96 E3        29.95S
MOUNT PLEASANT PTCLDY    72  72  98 NE3       29.94S
GILMER         CLEAR     72  70  94 CALM      29.94S
MINEOLA        CLOUDY    72  70  94 CALM      29.94S FOG
TYLER          CLOUDY    77  69  76 S7        29.93S
LONGVIEW         N/A     72  69  90 S5        29.93R
MARSHALL       CLEAR     70  67  92 CALM      29.96S
ATHENS         MOCLDY    72  72 100 CALM      29.92S
PALESTINE      CLEAR     75  71  86 CALM      29.94S
JACKSONVILLE   CLEAR     74  70  86 S5        29.96S
HENDERSON      CLEAR     73  68  82 CALM      29.95S
CENTER         FAIR      74  73  95 S3        29.96R
NACOGDOCHES    CLEAR     72  66  83 SE3       29.95S
LUFKIN         CLOUDY    71  68  90 CALM      29.95R
$$

SUPPLEMENTAL OBSERVATIONS (CENTRAL)

CITY           SKY/WX    TMP DP  RH WIND       PRES   REMARKS
CADDO GRASSLND   N/A     70  68  94 SE1         N/A
PAT MAYSE LAKE   N/A     72  70  94 E6          N/A
GREENVILLE       N/A     73  68  83 E2          N/A
MCGREGOR         N/A     75  64  69 S9          N/A
TEMPLE           N/A     75  68  78 SE6         N/A
$$

SUPPLEMENTAL OBSERVATIONS (WEST)

CITY           SKY/WX    TMP DP  RH WIND       PRES   REMARKS
MILLERS CREEK    N/A     75  68  78 SE12        N/A
POSSUM KINGDOM   N/A     73  66  78 E7          N/A
LBJ GRASSLAND    N/A     73  64  73 SE5         N/A
GRANBURY         N/A     75  66  73 SE7         N/A
HAMBY            N/A     79  68  69 SW6         N/A
IVIE RESERVOIR   N/A     73  68  83 S2          N/A
COLORADO BEND    N/A     73  64  73 S6          N/A
$$

SUPPLEMENTAL OBSERVATIONS (EAST)

CITY           SKY/WX    TMP DP  RH WIND       PRES   REMARKS
TEXARKANA        N/A     70  68  94 SE7G16      N/A
LUFKIN           N/A     70  66  88 MISG        N/A
$$

SUPPLEMENTAL OBSERVATIONS ARE A COLLECTION OF AUTOMATED INSTRUMENTS
THAT ARE MAINTAINED BY A VARIETY OF FEDERAL AND STATE AGENCIES.
CERTAIN ELEMENTS...SUCH AS HUMIDITY VALUES AND SUSTAINED WIND
SPEEDS...MAY BE APPROXIMATED.





USA.gov is the U.S. government's official web portal to all federal, state and local government web resources and services.